| time (UTC) | temp F | wind direction | speed knots | gust knots | rain 1hr in | rain 24hr in | rain mn in | humidity % | barometer mb |
| 20260502163041 | 57 | 83 | 0.9 | 7.0 | 0.00 | 0.00 | 0.00 | 48 | 1013.2 |
| 20260502161526 | 56 | 39 | 2.6 | 10.4 | 0.00 | 0.00 | 0.00 | 46 | 1013.4 |
| 20260502151529 | 52 | 315 | 1.7 | 5.2 | 0.00 | 0.00 | 0.00 | 48 | 1013.9 |
| 20260502123022 | 47 | 52 | 0.0 | 3.5 | 0.00 | 0.00 | 0.00 | 61 | 1013.7 |
| 20260502121507 | 47 | 59 | 0.9 | 2.6 | 0.00 | 0.00 | 0.00 | 61 | 1013.6 |
| 20260502114504 | 47 | 50 | 0.0 | 7.0 | 0.00 | 0.00 | 0.00 | 60 | 1013.5 |
| 20260502113002 | 47 | 348 | 3.5 | 11.3 | 0.00 | 0.00 | 0.00 | 59 | 1013.1 |
| 20260502111603 | 48 | 73 | 1.7 | 7.0 | 0.00 | 0.00 | 0.00 | 58 | 1013.2 |
| 20260502110059 | 48 | 317 | 2.6 | 7.0 | 0.00 | 0.00 | 0.00 | 57 | 1013.1 |
| 20260502104557 | 48 | 83 | 1.7 | 12.2 | 0.00 | 0.00 | 0.00 | 57 | 1013.0 |
| 20260502103105 | 48 | 307 | 2.6 | 7.0 | 0.00 | 0.00 | 0.00 | 55 | 1013.3 |
| 20260502101603 | 49 | 78 | 0.9 | 3.5 | 0.00 | 0.00 | 0.00 | 55 | 1013.3 |
| 20260502100113 | 49 | 12 | 0.0 | 7.0 | 0.00 | 0.00 | 0.00 | 56 | 1013.1 |
| 20260502070029 | 51 | 219 | 0.0 | 2.6 | 0.00 | 0.00 | 0.00 | 66 | 1012.7 |
| 20260502064528 | 51 | 70 | 0.0 | 6.1 | 0.00 | 0.00 | 0.00 | 66 | 1012.7 |
| 20260502063027 | 52 | 334 | 0.0 | 1.7 | 0.00 | 0.00 | 0.00 | 65 | 1012.8 |
| 20260502061533 | 52 | 307 | 1.7 | 6.1 | 0.00 | 0.00 | 0.00 | 64 | 1012.9 |
| 20260502060023 | 53 | 315 | 0.0 | 7.8 | 0.00 | 0.00 | 0.00 | 63 | 1013.1 |
| 20260502054519 | 53 | 349 | 1.7 | 7.0 | 0.00 | 0.00 | 0.00 | 63 | 1012.7 |
| 20260502053017 | 53 | 230 | 1.7 | 8.7 | 0.00 | 0.00 | 0.00 | 62 | 1012.9 |
| 20260502051522 | 54 | 46 | 2.6 | 7.8 | 0.00 | 0.00 | 0.00 | 62 | 1012.9 |
| 20260502050012 | 54 | 327 | 0.0 | 5.2 | 0.00 | 0.00 | 0.00 | 63 | 1013.0 |
| 20260502044509 | 55 | 329 | 0.0 | 2.6 | 0.00 | 0.00 | 0.00 | 62 | 1012.9 |
| 20260502043005 | 55 | 324 | 2.6 | 7.8 | 0.00 | 0.00 | 0.00 | 62 | 1012.8 |
| 20260502041507 | 56 | 330 | 0.0 | 4.3 | 0.00 | 0.00 | 0.00 | 64 | 1012.8 |
| 20260502040002 | 56 | 320 | 0.0 | 8.7 | 0.00 | 0.00 | 0.00 | 62 | 1012.6 |
| 20260502034600 | 56 | 283 | 7.0 | 13.0 | 0.00 | 0.00 | 0.00 | 61 | 1012.5 |
| 20260502033059 | 57 | 34 | 4.3 | 12.2 | 0.00 | 0.00 | 0.00 | 61 | 1012.2 |
| 20260502031601 | 58 | 301 | 4.3 | 11.3 | 0.00 | 0.00 | 0.00 | 60 | 1012.1 |
| 20260502030111 | 58 | 305 | 1.7 | 12.2 | 0.00 | 0.00 | 0.00 | 58 | 1011.9 |
| 20260502024605 | 59 | 322 | 4.3 | 10.4 | 0.00 | 0.00 | 0.00 | 57 | 1011.9 |
| 20260502023057 | 59 | 297 | 5.2 | 11.3 | 0.00 | 0.00 | 0.00 | 56 | 1011.7 |
| 20260502021602 | 59 | 316 | 3.5 | 7.0 | 0.00 | 0.00 | 0.00 | 61 | 1011.4 |
| 20260502020055 | 58 | 306 | 0.0 | 0.9 | 0.00 | 0.00 | 0.00 | 65 | 1010.6 |
| 20260502014554 | 58 | 315 | 0.0 | 0.0 | 0.00 | 0.00 | 0.00 | 65 | 1010.6 |
| 20260502013053 | 58 | 320 | 0.0 | 0.0 | 0.00 | 0.00 | 0.00 | 63 | 1010.7 |
| 20260502011553 | 58 | 330 | 0.0 | 1.7 | 0.00 | 0.00 | 0.00 | 62 | 1010.4 |
| 20260502010107 | 59 | 322 | 0.0 | 0.9 | 0.00 | 0.00 | 0.00 | 61 | 1010.3 |
| 20260502004559 | 60 | 296 | 0.0 | 0.9 | 0.00 | 0.00 | 0.00 | 60 | 1009.9 |
| 20260502003051 | 61 | 214 | 0.0 | 1.7 | 0.00 | 0.00 | 0.00 | 56 | 1009.8 |
| 20260502001551 | 61 | 121 | 0.0 | 3.5 | 0.00 | 0.00 | 0.00 | 56 | 1009.7 |
| 20260502000051 | 62 | 54 | 0.0 | 1.7 | 0.00 | 0.00 | 0.00 | 54 | 1009.4 |
| 20260501234550 | 62 | 311 | 0.9 | 2.6 | 0.00 | 0.00 | 0.00 | 54 | 1009.2 |
| 20260501233049 | 62 | 125 | 0.9 | 6.1 | 0.00 | 0.00 | 0.00 | 53 | 1008.9 |
| 20260501231548 | 63 | 211 | 0.9 | 5.2 | 0.00 | 0.00 | 0.00 | 53 | 1008.8 |
| 20260501230058 | 63 | 215 | 2.6 | 7.0 | 0.00 | 0.00 | 0.00 | 51 | 1008.8 |
| 20260501224547 | 64 | 216 | 1.7 | 7.8 | 0.00 | 0.00 | 0.00 | 50 | 1008.7 |
| 20260501223053 | 65 | 198 | 1.7 | 7.0 | 0.00 | 0.00 | 0.00 | 48 | 1008.8 |
| 20260501221543 | 65 | 119 | 2.6 | 7.8 | 0.00 | 0.00 | 0.00 | 48 | 1009.0 |
| 20260501220047 | 65 | 212 | 3.5 | 10.4 | 0.00 | 0.00 | 0.00 | 47 | 1009.0 |
| 20260501214553 | 65 | 80 | 3.5 | 9.6 | 0.00 | 0.00 | 0.00 | 48 | 1009.2 |
| 20260501213040 | 65 | 65 | 2.6 | 7.8 | 0.00 | 0.00 | 0.00 | 47 | 1009.2 |
| 20260501211543 | 65 | 112 | 3.5 | 9.6 | 0.00 | 0.00 | 0.00 | 46 | 1009.3 |
| 20260501210044 | 65 | 258 | 2.6 | 8.7 | 0.00 | 0.00 | 0.00 | 48 | 1009.6 |
| 20260501204607 | 65 | 129 | 3.5 | 7.8 | 0.00 | 0.00 | 0.00 | 45 | 1009.7 |
| 20260501203036 | 66 | 145 | 2.6 | 7.0 | 0.00 | 0.00 | 0.00 | 45 | 1009.8 |
| 20260501201534 | 65 | 124 | 0.9 | 9.6 | 0.00 | 0.00 | 0.00 | 48 | 1010.1 |
| 20260501200031 | 66 | 160 | 4.3 | 9.6 | 0.00 | 0.00 | 0.00 | 44 | 1010.4 |
| 20260501194529 | 66 | 105 | 2.6 | 7.0 | 0.00 | 0.00 | 0.00 | 45 | 1010.7 |
| 20260501193029 | 65 | 191 | 2.6 | 7.0 | 0.00 | 0.00 | 0.00 | 47 | 1011.1 |
| 20260501191525 | 65 | 130 | 0.9 | 7.8 | 0.00 | 0.00 | 0.00 | 46 | 1011.3 |
| 20260501190023 | 64 | 167 | 2.6 | 6.1 | 0.00 | 0.00 | 0.00 | 46 | 1011.5 |
| 20260501184525 | 64 | 126 | 3.5 | 7.8 | 0.00 | 0.00 | 0.00 | 44 | 1011.6 |
| 20260501183017 | 64 | 207 | 3.5 | 8.7 | 0.00 | 0.00 | 0.00 | 46 | 1011.8 |
| 20260501181513 | 63 | 112 | 2.6 | 9.6 | 0.00 | 0.00 | 0.00 | 46 | 1012.0 |
| 20260501180016 | 63 | 152 | 3.5 | 7.8 | 0.00 | 0.00 | 0.00 | 49 | 1012.4 |
| 20260501174529 | 62 | 140 | 2.6 | 6.1 | 0.00 | 0.00 | 0.00 | 50 | 1012.6 |
| 20260501173008 | 62 | 133 | 3.5 | 7.8 | 0.00 | 0.00 | 0.00 | 48 | 1012.9 |